AFL263 UWSG-URSS

Flight info

Callsign AFL263
Flight time 1h 43m
Altitude 34000
Route UWSG KR G900 OBABI/K0843F330 G900 ER B145 SUDIR N166 ADNET W79 BINOL URSS
Aircraft B738/M-SDE2E3FGHIRWXY/LB1

Departure

Time 2026-04-26 09:53
Airport Gagarin International Airport (UWSG)

Arrival

Time 2026-04-26 11:36
Airport Sochi International Airport (URSS)
Time Latitude Longitude Altitude Speed Heading
2026-04-26 09:35 51.71692 46.17035 103 ft 0 kts
2026-04-26 09:38 51.71681 46.17034 103 ft 2 kts
2026-04-26 09:39 51.71664 46.17034 103 ft 2 kts
2026-04-26 09:39 51.71648 46.17036 102 ft 2 kts 338°
2026-04-26 09:39 51.71635 46.17051 102 ft 2 kts 296°
2026-04-26 09:39 51.71632 46.17065 103 ft 0 kts 276°
2026-04-26 09:46 51.71632 46.17058 102 ft 2 kts 273°
2026-04-26 09:46 51.71633 46.17001 103 ft 7 kts 272°
2026-04-26 09:46 51.71635 46.16921 103 ft 7 kts 272°
2026-04-26 09:46 51.71637 46.16838 103 ft 8 kts 272°
2026-04-26 09:47 51.71639 46.16737 102 ft 10 kts 271°
2026-04-26 09:47 51.71638 46.16627 102 ft 10 kts 258°
2026-04-26 09:47 51.71584 46.16579 102 ft 10 kts 182°
2026-04-26 09:47 51.71518 46.16575 102 ft 9 kts 182°
2026-04-26 09:48 51.71454 46.16571 102 ft 9 kts 183°
2026-04-26 09:48 51.71391 46.16566 101 ft 9 kts 182°
2026-04-26 09:48 51.71330 46.16563 100 ft 9 kts 182°
2026-04-26 09:48 51.71282 46.16511 99 ft 9 kts 252°
2026-04-26 09:49 51.71280 46.16412 100 ft 9 kts 273°
2026-04-26 09:49 51.71284 46.16306 100 ft 11 kts 272°
2026-04-26 09:49 51.71286 46.16167 100 ft 14 kts 271°
2026-04-26 09:49 51.71290 46.15980 101 ft 18 kts 272°
2026-04-26 09:50 51.71294 46.15845 102 ft 18 kts 272°
2026-04-26 09:50 51.71298 46.15648 100 ft 17 kts 271°
2026-04-26 09:50 51.71303 46.15458 99 ft 17 kts 272°
2026-04-26 09:50 51.71307 46.15275 97 ft 16 kts 272°
2026-04-26 09:51 51.71321 46.15135 96 ft 11 kts 289°
2026-04-26 09:51 51.71346 46.15029 96 ft 9 kts 281°
2026-04-26 09:51 51.71330 46.14973 95 ft 6 kts 188°
2026-04-26 09:51 51.71313 46.15011 96 ft 0 kts 95°
2026-04-26 09:52 51.71312 46.15040 97 ft 6 kts 91°
2026-04-26 09:52 51.71300 46.15526 100 ft 81 kts 92°
2026-04-26 09:53 51.71273 46.16813 101 ft 147 kts 92°
2026-04-26 09:53 51.71229 46.18645 513 ft 168 kts 95°
2026-04-26 09:53 51.71203 46.20536 1368 ft 168 kts 98°
2026-04-26 09:53 51.71165 46.22464 2091 ft 178 kts 99°
2026-04-26 09:54 51.71102 46.24518 2679 ft 192 kts 99°
2026-04-26 09:54 51.71045 46.26718 3345 ft 201 kts 97°
2026-04-26 09:54 51.71011 46.29131 3711 ft 231 kts 89°
2026-04-26 09:54 51.71573 46.31699 3922 ft 258 kts 54°
2026-04-26 09:55 51.72910 46.33663 4320 ft 265 kts 23°
2026-04-26 09:55 51.74620 46.34899 4843 ft 277 kts 18°
2026-04-26 09:55 51.76436 46.36057 5431 ft 285 kts
2026-04-26 09:55 51.78361 46.36093 6312 ft 273 kts 339°
2026-04-26 09:56 51.80014 46.34740 7148 ft 263 kts 314°
2026-04-26 09:56 51.81131 46.32458 7981 ft 257 kts 293°
2026-04-26 09:56 51.81657 46.29730 8784 ft 256 kts 274°
2026-04-26 09:56 51.81745 46.26848 9623 ft 258 kts 270°
2026-04-26 09:57 51.81772 46.23913 10376 ft 263 kts 265°
2026-04-26 09:57 51.81255 46.21083 11084 ft 268 kts 240°
2026-04-26 09:57 51.80047 46.18775 11859 ft 273 kts 221°
2026-04-26 09:57 51.78391 46.17273 12600 ft 282 kts 205°
2026-04-26 09:58 51.76539 46.16172 13372 ft 286 kts 203°
2026-04-26 09:58 51.74640 46.15108 14066 ft 290 kts 202°
2026-04-26 09:58 51.72728 46.14042 14761 ft 292 kts 203°
2026-04-26 09:58 51.70804 46.12958 15501 ft 293 kts 203°
2026-04-26 09:59 51.68878 46.11862 16224 ft 294 kts 204°
2026-04-26 09:59 51.66938 46.10750 16917 ft 297 kts 204°
2026-04-26 09:59 51.64980 46.09624 17604 ft 299 kts 205°
2026-04-26 09:59 51.63015 46.08492 18285 ft 301 kts 205°
2026-04-26 10:00 51.61028 46.07346 18898 ft 304 kts 205°
2026-04-26 10:00 51.59030 46.06195 19482 ft 306 kts 205°
2026-04-26 10:00 51.57015 46.05035 20068 ft 309 kts 205°
2026-04-26 10:00 51.55009 46.03763 20649 ft 310 kts 209°
2026-04-26 10:01 51.53078 46.02319 21207 ft 312 kts 211°
2026-04-26 10:01 51.51116 46.00790 21774 ft 315 kts 211°
2026-04-26 10:01 51.49135 45.99238 22342 ft 317 kts 211°
2026-04-26 10:01 51.47138 45.97682 22889 ft 320 kts 211°
2026-04-26 10:02 51.45125 45.96126 23457 ft 322 kts 211°
2026-04-26 10:02 51.43096 45.94567 23938 ft 324 kts 211°
2026-04-26 10:02 51.41047 45.93000 24354 ft 328 kts 211°
2026-04-26 10:02 51.38966 45.91412 24674 ft 335 kts 211°
2026-04-26 10:03 51.36844 45.89797 25055 ft 339 kts 211°
2026-04-26 10:03 51.34732 45.88195 25536 ft 340 kts 211°
2026-04-26 10:03 51.32586 45.86570 25984 ft 342 kts 211°
2026-04-26 10:03 51.30414 45.84926 26402 ft 345 kts 211°
2026-04-26 10:04 51.28231 45.83276 26812 ft 348 kts 211°
2026-04-26 10:04 51.26021 45.81607 27220 ft 351 kts 211°
2026-04-26 10:04 51.23823 45.79949 27619 ft 354 kts 211°
2026-04-26 10:04 51.21590 45.78266 27999 ft 356 kts 210°
2026-04-26 10:05 51.19334 45.76567 28425 ft 359 kts 210°
2026-04-26 10:05 51.17061 45.74859 28815 ft 361 kts 210°
2026-04-26 10:05 51.14775 45.73142 29162 ft 364 kts 210°
2026-04-26 10:05 51.12501 45.71435 29527 ft 367 kts 210°
2026-04-26 10:06 51.10183 45.69697 29889 ft 370 kts 210°
2026-04-26 10:06 51.07843 45.67945 30203 ft 372 kts 210°
2026-04-26 10:06 51.05499 45.66192 30526 ft 373 kts 210°
2026-04-26 10:06 51.03147 45.64405 30861 ft 373 kts 213°
2026-04-26 10:07 50.98940 45.59482 31031 ft 382 kts 223°
2026-04-26 10:07 50.94728 45.54045 31175 ft 397 kts 222°
2026-04-26 10:08 50.90335 45.48555 31300 ft 411 kts 221°
2026-04-26 10:08 50.85738 45.42906 31417 ft 424 kts 221°
2026-04-26 10:09 50.83354 45.40093 31523 ft 429 kts 220°
2026-04-26 10:09 50.80934 45.37294 31640 ft 433 kts 220°
2026-04-26 10:09 50.78487 45.34484 31867 ft 434 kts 220°
2026-04-26 10:09 50.76057 45.31699 32378 ft 428 kts 220°
2026-04-26 10:10 50.73661 45.28950 32869 ft 424 kts 220°
2026-04-26 10:10 50.71273 45.26206 33193 ft 423 kts 220°
2026-04-26 10:10 50.68893 45.23465 33439 ft 423 kts 220°
2026-04-26 10:10 50.66510 45.20719 33675 ft 424 kts 220°
2026-04-26 10:11 50.64154 45.18006 33919 ft 424 kts 220°
2026-04-26 10:11 50.61755 45.15246 33894 ft 428 kts 220°
2026-04-26 10:11 50.56946 45.09727 33890 ft 426 kts 220°
2026-04-26 10:12 50.52179 45.04276 33904 ft 422 kts 220°
2026-04-26 10:12 50.47431 44.98856 33910 ft 420 kts 220°
2026-04-26 10:13 50.42690 44.93457 33911 ft 420 kts 220°
2026-04-26 10:13 50.37968 44.88093 33914 ft 419 kts 220°
2026-04-26 10:14 50.33265 44.82764 33915 ft 420 kts 219°
2026-04-26 10:14 50.28514 44.77394 33918 ft 421 kts 219°
2026-04-26 10:15 50.23754 44.72029 33915 ft 422 kts 219°
2026-04-26 10:15 50.18977 44.66657 33915 ft 423 kts 219°
2026-04-26 10:16 50.14214 44.61315 33910 ft 425 kts 219°
2026-04-26 10:16 50.09405 44.55936 33908 ft 425 kts 219°
2026-04-26 10:17 50.04596 44.50570 33924 ft 426 kts 219°
2026-04-26 10:17 49.99760 44.45186 33926 ft 427 kts 219°
2026-04-26 10:18 49.94922 44.39815 33910 ft 427 kts 218°
2026-04-26 10:18 49.90111 44.34486 33921 ft 428 kts 218°
2026-04-26 10:19 49.85249 44.29115 33919 ft 428 kts 218°
2026-04-26 10:19 49.80400 44.23772 33925 ft 428 kts 218°
2026-04-26 10:20 49.76373 44.19344 33929 ft 427 kts 218°
2026-04-26 10:20 49.70707 44.13130 33929 ft 427 kts 218°
2026-04-26 10:21 49.65862 44.07830 33925 ft 427 kts 218°
2026-04-26 10:21 49.61017 44.02543 33929 ft 426 kts 218°
2026-04-26 10:22 49.56173 43.97268 33927 ft 426 kts 218°
2026-04-26 10:22 49.51362 43.92058 33936 ft 425 kts 216°
2026-04-26 10:23 49.46350 43.87179 33936 ft 425 kts 213°
2026-04-26 10:23 49.41291 43.82453 33934 ft 425 kts 213°
2026-04-26 10:24 49.36258 43.77705 33934 ft 424 kts 214°
2026-04-26 10:24 49.31239 43.72948 33930 ft 424 kts 213°
2026-04-26 10:25 49.26221 43.68198 33940 ft 424 kts 214°
2026-04-26 10:25 49.21514 43.62817 33939 ft 422 kts 220°
2026-04-26 10:26 49.16933 43.57174 33939 ft 422 kts 220°
2026-04-26 10:26 49.12342 43.51565 33936 ft 423 kts 219°
2026-04-26 10:27 49.07754 43.46030 33937 ft 423 kts 219°
2026-04-26 10:27 49.03117 43.40472 33937 ft 423 kts 219°
2026-04-26 10:28 48.98480 43.34929 33935 ft 424 kts 219°
2026-04-26 10:28 48.93845 43.29402 33941 ft 423 kts 219°
2026-04-26 10:29 48.89202 43.23878 33936 ft 423 kts 219°
2026-04-26 10:29 48.84552 43.18357 33934 ft 423 kts 219°
2026-04-26 10:30 48.79940 43.12896 33940 ft 422 kts 219°
2026-04-26 10:30 48.75307 43.07423 33938 ft 422 kts 219°
2026-04-26 10:31 48.70678 43.01967 33935 ft 421 kts 219°
2026-04-26 10:31 48.66048 42.96522 33932 ft 421 kts 219°
2026-04-26 10:32 48.61429 42.91101 33931 ft 420 kts 219°
2026-04-26 10:32 48.56835 42.85727 33932 ft 419 kts 220°
2026-04-26 10:33 48.52204 42.80346 33947 ft 418 kts 220°
2026-04-26 10:33 48.47615 42.75029 33946 ft 418 kts 220°
2026-04-26 10:34 48.43008 42.69700 33943 ft 418 kts 220°
2026-04-26 10:34 48.39172 42.65270 33943 ft 418 kts 220°
2026-04-26 10:35 48.34554 42.59950 33936 ft 418 kts 220°
2026-04-26 10:35 48.29927 42.54629 33940 ft 418 kts 220°
2026-04-26 10:36 48.25305 42.49327 33945 ft 418 kts 220°
2026-04-26 10:36 48.20697 42.44065 33943 ft 419 kts 220°
2026-04-26 10:37 48.16046 42.38797 33939 ft 419 kts 220°
2026-04-26 10:37 48.11393 42.33538 33940 ft 419 kts 220°
2026-04-26 10:38 48.09055 42.30897 33690 ft 422 kts 220°
2026-04-26 10:38 48.06711 42.28252 33423 ft 420 kts 220°
2026-04-26 10:38 48.04388 42.25635 33147 ft 417 kts 220°
2026-04-26 10:38 48.02094 42.23055 32984 ft 416 kts 220°
2026-04-26 10:39 47.97457 42.17841 32940 ft 418 kts 220°
2026-04-26 10:39 47.92787 42.12602 32943 ft 419 kts 220°
2026-04-26 10:40 47.88120 42.07381 32939 ft 419 kts 220°
2026-04-26 10:40 47.83459 42.02176 32947 ft 418 kts 220°
2026-04-26 10:41 47.78820 41.97010 32943 ft 418 kts 220°
2026-04-26 10:41 47.74159 41.91830 32935 ft 417 kts 220°
2026-04-26 10:42 47.69507 41.86667 32942 ft 417 kts 220°
2026-04-26 10:42 47.64861 41.81520 32941 ft 417 kts 220°
2026-04-26 10:43 47.60246 41.76419 32940 ft 416 kts 220°
2026-04-26 10:43 47.55602 41.71298 32948 ft 416 kts 220°
2026-04-26 10:44 47.50953 41.66181 32947 ft 416 kts 220°
2026-04-26 10:44 47.46297 41.61070 32948 ft 416 kts 220°
2026-04-26 10:45 47.41681 41.56015 32942 ft 416 kts 220°
2026-04-26 10:45 47.37025 41.50924 32953 ft 416 kts 220°
2026-04-26 10:46 47.32361 41.45833 32952 ft 416 kts 220°
2026-04-26 10:46 47.27694 41.40751 32952 ft 417 kts 220°
2026-04-26 10:47 47.23056 41.35710 32949 ft 417 kts 220°
2026-04-26 10:47 47.18381 41.30642 32959 ft 417 kts 220°
2026-04-26 10:48 47.13692 41.25570 32955 ft 418 kts 220°
2026-04-26 10:48 47.09001 41.20506 32956 ft 418 kts 220°
2026-04-26 10:49 47.04317 41.15461 32948 ft 418 kts 220°
2026-04-26 10:49 46.99652 41.10448 32958 ft 418 kts 220°
2026-04-26 10:50 46.95719 41.06231 32942 ft 418 kts 220°
2026-04-26 10:50 46.90271 41.00400 32947 ft 417 kts 220°
2026-04-26 10:51 46.83254 40.92910 32959 ft 415 kts 220°
2026-04-26 10:52 46.78591 40.87943 32954 ft 414 kts 220°
2026-04-26 10:52 46.73989 40.82897 32962 ft 414 kts 221°
2026-04-26 10:53 46.69399 40.77832 32949 ft 414 kts 221°
2026-04-26 10:53 46.64829 40.72817 32957 ft 414 kts 221°
2026-04-26 10:54 46.57889 40.65318 32957 ft 416 kts 217°
2026-04-26 10:54 46.52843 40.61092 32957 ft 420 kts 213°
2026-04-26 10:55 46.47733 40.56972 32955 ft 420 kts 214°
2026-04-26 10:55 46.42635 40.52789 32961 ft 420 kts 214°
2026-04-26 10:56 46.37545 40.48594 32964 ft 421 kts 214°
2026-04-26 10:56 46.32141 40.45275 32958 ft 432 kts 200°
2026-04-26 10:57 46.26314 40.43135 32959 ft 431 kts 200°
2026-04-26 10:57 46.20500 40.40980 32962 ft 431 kts 200°
2026-04-26 10:58 46.14684 40.38791 32960 ft 431 kts 200°
2026-04-26 10:58 46.08876 40.36595 32947 ft 431 kts 200°
2026-04-26 10:59 46.03073 40.34405 32956 ft 430 kts 200°
2026-04-26 10:59 45.97319 40.32238 32963 ft 430 kts 200°
2026-04-26 11:00 45.91541 40.30068 32961 ft 429 kts 200°
2026-04-26 11:00 45.85766 40.27903 32963 ft 428 kts 200°
2026-04-26 11:01 45.79996 40.25744 32964 ft 427 kts 200°
2026-04-26 11:01 45.74386 40.23141 32958 ft 418 kts 211°
2026-04-26 11:02 45.69206 40.19469 32963 ft 418 kts 211°
2026-04-26 11:02 45.63993 40.15795 32945 ft 418 kts 211°
2026-04-26 11:03 45.58757 40.12159 32961 ft 418 kts 211°
2026-04-26 11:03 45.53533 40.08550 32959 ft 419 kts 211°
2026-04-26 11:04 45.48277 40.04926 32957 ft 420 kts 211°
2026-04-26 11:04 45.42874 40.01674 32938 ft 427 kts 201°
2026-04-26 11:05 45.36979 40.00326 32955 ft 434 kts 192°
2026-04-26 11:05 45.30953 39.99388 32958 ft 435 kts 192°
2026-04-26 11:06 45.25944 39.98581 32954 ft 436 kts 192°
2026-04-26 11:06 45.18934 39.97416 32952 ft 436 kts 192°
2026-04-26 11:07 45.12900 39.96407 32954 ft 436 kts 192°
2026-04-26 11:07 45.06859 39.95400 32946 ft 437 kts 192°
2026-04-26 11:08 45.00818 39.94395 32952 ft 437 kts 192°
2026-04-26 11:08 44.94777 39.93393 32948 ft 437 kts 192°
2026-04-26 11:09 44.88776 39.92401 32952 ft 437 kts 192°
2026-04-26 11:09 44.82722 39.91413 32949 ft 437 kts 192°
2026-04-26 11:10 44.76673 39.90430 32915 ft 438 kts 192°
2026-04-26 11:10 44.70611 39.89445 32939 ft 438 kts 191°
2026-04-26 11:11 44.64590 39.88468 32940 ft 438 kts 191°
2026-04-26 11:11 44.58520 39.87484 32938 ft 439 kts 191°
2026-04-26 11:12 44.52444 39.86502 32923 ft 439 kts 191°
2026-04-26 11:12 44.46359 39.85521 32933 ft 440 kts 191°
2026-04-26 11:13 44.40308 39.84552 32930 ft 441 kts 189°
2026-04-26 11:13 44.37216 39.84443 32804 ft 448 kts 181°
2026-04-26 11:13 44.34094 39.84991 32238 ft 455 kts 172°
2026-04-26 11:14 44.31021 39.86139 31498 ft 457 kts 168°
2026-04-26 11:14 44.27961 39.87407 30789 ft 458 kts 167°
2026-04-26 11:14 44.24911 39.88685 30168 ft 456 kts 167°
2026-04-26 11:14 44.22908 39.89517 29813 ft 453 kts 167°
2026-04-26 11:15 44.18921 39.91142 29044 ft 446 kts 168°
2026-04-26 11:15 44.15946 39.92333 28519 ft 441 kts 168°
2026-04-26 11:15 44.13001 39.93500 28002 ft 437 kts 168°
2026-04-26 11:15 44.10088 39.94650 27470 ft 433 kts 168°
2026-04-26 11:16 44.07203 39.95786 26942 ft 429 kts 169°
2026-04-26 11:16 44.04334 39.96916 26425 ft 425 kts 169°
2026-04-26 11:16 44.01537 39.98018 25934 ft 421 kts 168°
2026-04-26 11:16 43.98734 39.99122 25425 ft 417 kts 168°
2026-04-26 11:17 43.95939 40.00221 24936 ft 414 kts 168°
2026-04-26 11:17 43.93181 40.01308 24455 ft 411 kts 168°
2026-04-26 11:17 43.90444 40.02389 23957 ft 408 kts 168°
2026-04-26 11:17 43.87721 40.03464 23459 ft 405 kts 168°
2026-04-26 11:18 43.85016 40.04530 22888 ft 402 kts 168°
2026-04-26 11:18 43.82329 40.05589 22370 ft 399 kts 168°
2026-04-26 11:18 43.79672 40.06634 21873 ft 395 kts 168°
2026-04-26 11:18 43.77035 40.07670 21381 ft 392 kts 169°
2026-04-26 11:19 43.74463 40.08680 20922 ft 388 kts 168°
2026-04-26 11:19 43.71861 40.09682 20441 ft 385 kts 171°
2026-04-26 11:19 43.69244 40.10051 19954 ft 375 kts 187°
2026-04-26 11:19 43.66692 40.09493 19588 ft 366 kts 199°
2026-04-26 11:20 43.64353 40.08196 19212 ft 360 kts 208°
2026-04-26 11:20 43.62857 40.07203 18962 ft 361 kts 208°
2026-04-26 11:20 43.59784 40.05199 18442 ft 366 kts 207°
2026-04-26 11:20 43.57472 40.03725 18030 ft 367 kts 207°
2026-04-26 11:21 43.55184 40.02290 17598 ft 363 kts 207°
2026-04-26 11:21 43.52891 40.00860 17188 ft 360 kts 207°
2026-04-26 11:21 43.50623 39.99444 16801 ft 356 kts 207°
2026-04-26 11:21 43.48373 39.98039 16411 ft 353 kts 207°
2026-04-26 11:22 43.46136 39.96644 16037 ft 351 kts 206°
2026-04-26 11:22 43.44648 39.95791 15757 ft 351 kts 203°
2026-04-26 11:22 43.42340 39.94684 15319 ft 351 kts 201°
2026-04-26 11:22 43.40018 39.93642 14880 ft 350 kts 200°
2026-04-26 11:23 43.37698 39.92616 14440 ft 349 kts 200°
2026-04-26 11:23 43.35386 39.91589 14014 ft 348 kts 200°
2026-04-26 11:23 43.33085 39.90560 13545 ft 347 kts 200°
2026-04-26 11:23 43.30791 39.89527 13062 ft 345 kts 200°
2026-04-26 11:24 43.28527 39.88503 12616 ft 341 kts 200°
2026-04-26 11:24 43.26291 39.87491 12179 ft 336 kts 200°
2026-04-26 11:24 43.24090 39.86494 11746 ft 328 kts 200°
2026-04-26 11:24 43.21988 39.85542 11335 ft 315 kts 200°
2026-04-26 11:25 43.19941 39.84616 10935 ft 304 kts 200°
2026-04-26 11:25 43.17963 39.83720 10566 ft 294 kts 200°
2026-04-26 11:25 43.16046 39.82853 10200 ft 285 kts 200°
2026-04-26 11:25 43.14191 39.82013 9913 ft 277 kts 200°
2026-04-26 11:26 43.12411 39.81209 9913 ft 264 kts 200°
2026-04-26 11:26 43.10621 39.80399 9249 ft 275 kts 200°
2026-04-26 11:26 43.08795 39.79573 8790 ft 277 kts 200°
2026-04-26 11:26 43.06966 39.78748 8423 ft 277 kts 199°
2026-04-26 11:27 43.05133 39.77922 8062 ft 277 kts 199°
2026-04-26 11:27 43.03373 39.76981 7741 ft 274 kts 213°
2026-04-26 11:27 43.02104 39.75105 7502 ft 270 kts 240°
2026-04-26 11:27 43.01475 39.72697 7262 ft 269 kts 258°
2026-04-26 11:28 43.01468 39.70142 7011 ft 270 kts 277°
2026-04-26 11:28 43.02119 39.67732 6759 ft 273 kts 298°
2026-04-26 11:28 43.03390 39.65804 6517 ft 275 kts 321°
2026-04-26 11:28 43.05094 39.64701 6272 ft 277 kts 345°
2026-04-26 11:29 43.07014 39.64571 6016 ft 277 kts
2026-04-26 11:29 43.08841 39.65348 5755 ft 275 kts 30°
2026-04-26 11:29 43.10462 39.66740 5526 ft 273 kts 35°
2026-04-26 11:29 43.12027 39.68196 5270 ft 272 kts 36°
2026-04-26 11:30 43.13567 39.69643 5024 ft 271 kts 36°
2026-04-26 11:30 43.14616 39.70627 4860 ft 270 kts 36°
2026-04-26 11:30 43.16667 39.72543 4527 ft 268 kts 36°
2026-04-26 11:30 43.18211 39.73979 4270 ft 267 kts 38°
2026-04-26 11:31 43.19749 39.75408 4021 ft 266 kts 38°
2026-04-26 11:31 43.21280 39.76829 3771 ft 264 kts 38°
2026-04-26 11:31 43.22797 39.78236 3524 ft 262 kts 39°
2026-04-26 11:31 43.24305 39.79634 3349 ft 258 kts 39°
2026-04-26 11:32 43.25747 39.80967 3306 ft 242 kts 39°
2026-04-26 11:32 43.27092 39.82210 3191 ft 229 kts 39°
2026-04-26 11:32 43.28457 39.83251 3093 ft 219 kts 33°
2026-04-26 11:32 43.29786 39.84189 2920 ft 211 kts 35°
2026-04-26 11:33 43.31063 39.85148 2680 ft 207 kts 35°
2026-04-26 11:33 43.32317 39.86095 2420 ft 204 kts 36°
2026-04-26 11:33 43.33535 39.87011 2172 ft 194 kts 36°
2026-04-26 11:33 43.34687 39.87881 1920 ft 183 kts 32°
2026-04-26 11:34 43.35768 39.88693 1716 ft 169 kts 31°
2026-04-26 11:34 43.36767 39.89445 1507 ft 159 kts 31°
2026-04-26 11:34 43.37743 39.90180 1306 ft 161 kts 30°
2026-04-26 11:34 43.38721 39.90916 1112 ft 164 kts 30°
2026-04-26 11:35 43.39718 39.91667 903 ft 162 kts 29°
2026-04-26 11:35 43.40703 39.92407 686 ft 160 kts 29°
2026-04-26 11:35 43.41675 39.93138 502 ft 161 kts 28°
2026-04-26 11:35 43.42671 39.93888 292 ft 163 kts 28°
2026-04-26 11:36 43.43651 39.94630 143 ft 160 kts 28°
2026-04-26 11:36 43.44598 39.95338 87 ft 139 kts 31°
2026-04-26 11:36 43.45230 39.95813 92 ft 42 kts 28°
2026-04-26 11:36 43.45288 39.95841 95 ft 6 kts 344°
2026-04-26 11:37 43.45291 39.95792 94 ft 6 kts 247°
2026-04-26 11:37 43.45268 39.95735 92 ft 8 kts 240°
2026-04-26 11:37 43.45240 39.95667 92 ft 8 kts 240°
2026-04-26 11:37 43.45210 39.95602 93 ft 8 kts 237°
2026-04-26 11:38 43.45179 39.95541 94 ft 8 kts 234°
2026-04-26 11:38 43.45149 39.95482 93 ft 8 kts 234°
2026-04-26 11:38 43.45118 39.95419 92 ft 8 kts 238°
2026-04-26 11:38 43.45086 39.95336 89 ft 11 kts 244°
2026-04-26 11:39 43.45049 39.95228 88 ft 14 kts 244°
2026-04-26 11:39 43.45010 39.95115 83 ft 10 kts 244°
2026-04-26 11:39 43.44964 39.95036 80 ft 11 kts 238°
2026-04-26 11:39 43.44927 39.94932 68 ft 13 kts 245°
2026-04-26 11:40 43.44887 39.94815 74 ft 14 kts 245°
2026-04-26 11:40 43.44845 39.94694 69 ft 14 kts 244°
2026-04-26 11:40 43.44805 39.94576 69 ft 13 kts 245°
2026-04-26 11:40 43.44767 39.94464 69 ft 13 kts 245°
2026-04-26 11:41 43.44730 39.94355 68 ft 12 kts 245°
2026-04-26 11:42 43.44743 39.94187 74 ft 0 kts 334°